Time,TemperatureF,DewpointF,PressureIn,WindDirection,WindDirectionDegrees,WindSpeedMPH,WindSpeedGustMPH,Humidity,HourlyPrecipIn,Conditions,Clouds,dailyrainin,SolarRadiationWatts/m^2,SoftwareType,DateUTC
2013-02-09 00:01:00,23.0,22.0,-100.00,NNW,338,11.0,15.0,96,-99.99,,,-99.99,0.000000,,2013-02-09 08:01:00,
2013-02-09 00:11:00,23.0,22.0,-100.00,NNW,338,12.0,16.0,96,-99.99,,,-99.99,0.000000,,2013-02-09 08:11:00,
2013-02-09 00:21:00,23.0,22.0,-100.00,NNW,342,10.0,14.0,96,-99.99,,,-99.99,0.000000,,2013-02-09 08:21:00,
2013-02-09 00:31:00,23.0,22.0,-100.00,NNW,345,9.0,14.0,96,-99.99,,,-99.99,0.000000,,2013-02-09 08:31:00,
2013-02-09 00:41:00,23.0,22.0,-100.00,NNW,347,9.0,13.0,96,-99.99,,,-99.99,0.000000,,2013-02-09 08:41:00,
2013-02-09 00:50:00,22.0,21.0,-100.00,NNW,345,11.0,15.0,96,-99.99,,,-99.99,0.000000,,2013-02-09 08:50:00,
2013-02-09 00:52:00,23.0,22.0,-100.00,NNW,347,9.0,13.0,96,-99.99,,,-99.99,0.000000,,2013-02-09 08:52:00,
2013-02-09 01:02:00,22.0,21.0,-100.00,NNW,345,11.0,17.0,96,-99.99,,,-99.99,0.000000,,2013-02-09 09:02:00,
2013-02-09 01:11:00,22.0,21.0,-100.00,NNW,345,11.0,17.0,96,-99.99,,,-99.99,0.000000,,2013-02-09 09:11:00,
2013-02-09 01:21:00,22.0,21.0,-100.00,NNW,339,11.0,15.0,96,-99.99,,,-99.99,0.000000,,2013-02-09 09:21:00,
2013-02-09 01:31:00,22.0,21.0,-100.00,NNW,339,11.0,15.0,96,-99.99,,,-99.99,0.000000,,2013-02-09 09:31:00,
2013-02-09 01:41:00,22.0,21.0,-100.00,NNW,345,11.0,15.0,96,-99.99,,,-99.99,0.000000,,2013-02-09 09:41:00,
2013-02-09 02:01:00,22.0,21.0,-100.00,NNW,340,10.0,14.0,96,-99.99,,,-99.99,0.000000,,2013-02-09 10:01:00,
2013-02-09 02:11:00,22.0,21.0,-100.00,NNW,336,9.0,12.0,96,-99.99,,,-99.99,0.000000,,2013-02-09 10:11:00,
2013-02-09 02:21:00,22.0,21.0,-100.00,NNW,341,8.0,11.0,96,-99.99,,,-99.99,0.000000,,2013-02-09 10:21:00,
2013-02-09 02:31:00,22.0,21.0,-100.00,NNW,341,8.0,11.0,96,-99.99,,,-99.99,0.000000,,2013-02-09 10:31:00,
2013-02-09 02:41:00,22.0,21.0,-100.00,NNW,342,8.0,11.0,96,-99.99,,,-99.99,0.000000,,2013-02-09 10:41:00,
2013-02-09 02:51:00,22.0,21.0,-100.00,NNW,336,10.0,14.0,96,-99.99,,,-99.99,0.000000,,2013-02-09 10:51:00,
2013-02-09 03:01:00,22.0,21.0,-100.00,NNW,336,10.0,14.0,96,-99.99,,,-99.99,0.000000,,2013-02-09 11:01:00,
2013-02-09 03:11:00,22.0,21.0,-100.00,NNW,335,11.0,13.0,96,-99.99,,,-99.99,0.000000,,2013-02-09 11:11:00,
2013-02-09 03:21:00,21.0,20.0,-100.00,NNW,331,10.0,12.0,96,-99.99,,,-99.99,0.000000,,2013-02-09 11:21:00,
2013-02-09 03:31:00,21.0,20.0,-100.00,NNW,331,10.0,12.0,96,-99.99,,,-99.99,0.000000,,2013-02-09 11:31:00,
2013-02-09 03:41:00,22.0,21.0,-100.00,NW,320,7.0,9.0,96,-99.99,,,-99.99,0.000000,,2013-02-09 11:41:00,
2013-02-09 03:52:00,22.0,21.0,-100.00,NW,320,7.0,9.0,96,-99.99,,,-99.99,0.000000,,2013-02-09 11:52:00,
2013-02-09 04:02:00,22.0,21.0,-100.00,NW,304,6.0,8.0,96,-99.99,,,-99.99,0.000000,,2013-02-09 12:02:00,
2013-02-09 04:11:00,22.0,21.0,-100.00,WNW,302,6.0,8.0,96,-99.99,,,-99.99,0.000000,,2013-02-09 12:11:00,
2013-02-09 04:21:00,22.0,21.0,-100.00,WNW,282,6.0,8.0,96,-99.99,,,-99.99,0.000000,,2013-02-09 12:21:00,
2013-02-09 04:32:00,22.0,21.0,-100.00,WNW,282,6.0,8.0,96,-99.99,,,-99.99,0.000000,,2013-02-09 12:32:00,
2013-02-09 04:42:00,22.0,21.0,-100.00,WNW,289,5.0,7.0,96,-99.99,,,-99.99,0.000000,,2013-02-09 12:42:00,
2013-02-09 04:52:00,22.0,21.0,-100.00,WNW,294,6.0,7.0,96,-99.99,,,-99.99,0.000000,,2013-02-09 12:52:00,
2013-02-09 05:02:00,22.0,21.0,-100.00,WNW,294,6.0,7.0,96,-99.99,,,-99.99,0.000000,,2013-02-09 13:02:00,
2013-02-09 05:11:00,22.0,21.0,-100.00,WNW,287,6.0,8.0,96,-99.99,,,-99.99,0.000000,,2013-02-09 13:11:00,
2013-02-09 05:21:00,22.0,21.0,-100.00,West,276,5.0,6.0,96,-99.99,,,-99.99,0.000000,,2013-02-09 13:21:00,
2013-02-09 05:32:00,22.0,21.0,-100.00,West,276,5.0,6.0,96,-99.99,,,-99.99,0.000000,,2013-02-09 13:32:00,
2013-02-09 05:42:00,22.0,21.0,-100.00,West,267,6.0,7.0,96,-99.99,,,-99.99,0.000000,,2013-02-09 13:42:00,
2013-02-09 05:51:00,22.0,21.0,-100.00,West,267,7.0,9.0,96,-99.99,,,-99.99,0.000000,,2013-02-09 13:51:00,
2013-02-09 06:01:00,22.0,21.0,-100.00,West,267,7.0,9.0,96,-99.99,,,-99.99,0.000000,,2013-02-09 14:01:00,
2013-02-09 06:11:00,22.0,21.0,-100.00,West,281,6.0,9.0,96,-99.99,,,-99.99,0.000000,,2013-02-09 14:11:00,
2013-02-09 06:21:00,22.0,21.0,-100.00,West,277,6.0,8.0,96,-99.99,,,-99.99,0.000000,,2013-02-09 14:21:00,
2013-02-09 06:31:00,22.0,21.0,-100.00,West,277,6.0,8.0,96,-99.99,,,-99.99,0.000000,,2013-02-09 14:31:00,
2013-02-09 06:41:00,22.0,21.0,-100.00,West,281,4.0,4.0,96,-99.99,,,-99.99,0.000000,,2013-02-09 14:41:00,
2013-02-09 06:52:00,22.0,21.0,-100.00,West,281,4.0,4.0,96,-99.99,,,-99.99,0.000000,,2013-02-09 14:52:00,
2013-02-09 07:01:00,21.0,20.0,-100.00,West,279,4.0,6.0,95,-99.99,,,-99.99,0.000000,,2013-02-09 15:01:00,
2013-02-09 07:11:00,20.0,19.0,-100.00,WNW,288,2.0,4.0,95,-99.99,,,-99.99,1.000000,,2013-02-09 15:11:00,
2013-02-09 07:21:00,21.0,19.0,-100.00,WNW,296,0.0,1.0,95,-99.99,,,-99.99,6.000000,,2013-02-09 15:21:00,
2013-02-09 07:31:00,21.0,19.0,-100.00,WNW,296,0.0,1.0,95,-99.99,,,-99.99,6.000000,,2013-02-09 15:31:00,
2013-02-09 07:41:00,22.0,21.0,-100.00,West,280,4.0,6.0,96,-99.99,,,-99.99,12.000000,,2013-02-09 15:41:00,
2013-02-09 07:51:00,22.0,21.0,-100.00,WNW,286,3.0,4.0,96,-99.99,,,-99.99,31.000000,,2013-02-09 15:51:00,
2013-02-09 08:01:00,22.0,21.0,-100.00,NNW,335,1.0,3.0,96,-99.99,,,-99.99,34.000000,,2013-02-09 16:01:00,
2013-02-09 08:11:00,22.0,21.0,-100.00,North,356,2.0,4.0,96,-99.99,,,-99.99,44.000000,,2013-02-09 16:11:00,
2013-02-09 08:22:00,22.0,21.0,-100.00,NNW,345,2.0,4.0,96,-99.99,,,-99.99,68.000000,,2013-02-09 16:22:00,
2013-02-09 08:31:00,22.0,21.0,-100.00,NNW,345,2.0,4.0,96,-99.99,,,-99.99,68.000000,,2013-02-09 16:31:00,
2013-02-09 08:41:00,22.0,21.0,-100.00,NNW,328,3.0,4.0,95,-99.99,,,-99.99,154.000000,,2013-02-09 16:41:00,
2013-02-09 08:51:00,23.0,21.0,-100.00,NW,317,2.0,4.0,95,-99.99,,,-99.99,132.000000,,2013-02-09 16:51:00,
2013-02-09 09:01:00,22.0,21.0,-100.00,NW,306,3.0,4.0,95,-99.99,,,-99.99,106.000000,,2013-02-09 17:01:00,
2013-02-09 09:11:00,23.0,21.0,-100.00,WNW,302,3.0,4.0,95,-99.99,,,-99.99,166.000000,,2013-02-09 17:11:00,
2013-02-09 09:21:00,23.0,22.0,-100.00,NW,304,4.0,5.0,95,-99.99,,,-99.99,164.000000,,2013-02-09 17:21:00,
2013-02-09 09:32:00,23.0,22.0,-100.00,NW,304,4.0,5.0,95,-99.99,,,-99.99,164.000000,,2013-02-09 17:32:00,
2013-02-09 09:41:00,24.0,23.0,-100.00,NNW,329,5.0,6.0,95,-99.99,,,-99.99,295.000000,,2013-02-09 17:41:00,
2013-02-09 09:52:00,24.0,23.0,-100.00,NNW,335,7.0,8.0,95,-99.99,,,-99.99,269.000000,,2013-02-09 17:52:00,
2013-02-09 10:01:00,24.0,23.0,-100.00,NNW,329,7.0,9.0,95,-99.99,,,-99.99,271.000000,,2013-02-09 18:01:00,
2013-02-09 10:11:00,24.0,23.0,-100.00,NW,326,8.0,10.0,95,-99.99,,,-99.99,285.000000,,2013-02-09 18:11:00,
2013-02-09 10:23:00,24.0,23.0,-100.00,NW,322,8.0,10.0,95,-99.99,,,-99.99,332.000000,,2013-02-09 18:23:00,
2013-02-09 10:31:00,25.0,23.0,-100.00,NW,324,8.0,9.0,95,-99.99,,,-99.99,346.000000,,2013-02-09 18:31:00,
2013-02-09 10:42:00,25.0,24.0,-100.00,NW,320,8.0,10.0,95,-99.99,,,-99.99,419.000000,,2013-02-09 18:42:00,
2013-02-09 10:51:00,25.0,24.0,-100.00,NW,315,8.0,11.0,94,-99.99,,,-99.99,456.000000,,2013-02-09 18:51:00,
2013-02-09 11:01:00,25.0,24.0,-100.00,NW,319,9.0,11.0,94,-99.99,,,-99.99,542.000000,,2013-02-09 19:01:00,
2013-02-09 11:11:00,26.0,24.0,-100.00,NW,324,9.0,12.0,94,-99.99,,,-99.99,598.000000,,2013-02-09 19:11:00,
2013-02-09 11:22:00,26.0,24.0,-100.00,NW,326,10.0,14.0,93,-99.99,,,-99.99,674.000000,,2013-02-09 19:22:00,
2013-02-09 11:31:00,26.0,24.0,-100.00,NNW,330,11.0,14.0,92,-99.99,,,-99.99,502.000000,,2013-02-09 19:31:00,
2013-02-09 11:41:00,26.0,24.0,-100.00,NW,326,11.0,13.0,92,-99.99,,,-99.99,527.000000,,2013-02-09 19:41:00,
2013-02-09 11:52:00,25.0,24.0,-100.00,NNW,331,11.0,14.0,92,-99.99,,,-99.99,438.000000,,2013-02-09 19:52:00,
2013-02-09 12:01:00,25.0,24.0,-100.00,NNW,331,11.0,14.0,92,-99.99,,,-99.99,438.000000,,2013-02-09 20:01:00,
2013-02-09 12:11:00,25.0,24.0,-100.00,NNW,332,9.0,12.0,93,-99.99,,,-99.99,423.000000,,2013-02-09 20:11:00,
2013-02-09 12:21:00,25.0,24.0,-100.00,NNW,328,11.0,12.0,93,-99.99,,,-99.99,403.000000,,2013-02-09 20:21:00,
2013-02-09 12:31:00,25.0,23.0,-100.00,NW,325,10.0,11.0,92,-99.99,,,-99.99,404.000000,,2013-02-09 20:31:00,
2013-02-09 12:41:00,25.0,23.0,-100.00,NW,323,9.0,12.0,92,-99.99,,,-99.99,431.000000,,2013-02-09 20:41:00,
2013-02-09 12:52:00,25.0,23.0,-100.00,NW,326,9.0,11.0,92,-99.99,,,-99.99,429.000000,,2013-02-09 20:52:00,
2013-02-09 13:01:00,25.0,24.0,-100.00,NW,325,9.0,11.0,92,-99.99,,,-99.99,492.000000,,2013-02-09 21:01:00,
2013-02-09 13:11:00,26.0,24.0,-100.00,NW,323,10.0,12.0,92,-99.99,,,-99.99,431.000000,,2013-02-09 21:11:00,
2013-02-09 13:21:00,26.0,24.0,-100.00,NW,323,10.0,12.0,92,-99.99,,,-99.99,431.000000,,2013-02-09 21:21:00,
2013-02-09 13:31:00,25.0,23.0,-100.00,NNW,328,9.0,11.0,92,-99.99,,,-99.99,438.000000,,2013-02-09 21:31:00,
2013-02-09 13:41:00,26.0,24.0,-100.00,NNW,327,9.0,11.0,92,-99.99,,,-99.99,514.000000,,2013-02-09 21:41:00,
2013-02-09 13:52:00,26.0,24.0,-100.00,NW,322,11.0,15.0,93,-99.99,,,-99.99,574.000000,,2013-02-09 21:52:00,
2013-02-09 14:01:00,26.0,24.0,-100.00,NNW,338,12.0,15.0,92,-99.99,,,-99.99,540.000000,,2013-02-09 22:01:00,
2013-02-09 14:11:00,26.0,24.0,-100.00,NNW,336,13.0,16.0,93,-99.99,,,-99.99,522.000000,,2013-02-09 22:11:00,
2013-02-09 14:21:00,25.0,24.0,-100.00,NNW,334,13.0,16.0,93,-99.99,,,-99.99,369.000000,,2013-02-09 22:21:00,
2013-02-09 14:31:00,25.0,24.0,-100.00,NNW,334,13.0,16.0,93,-99.99,,,-99.99,369.000000,,2013-02-09 22:31:00,
2013-02-09 14:41:00,25.0,23.0,-100.00,NW,323,11.0,14.0,93,-99.99,,,-99.99,271.000000,,2013-02-09 22:41:00,
2013-02-09 14:51:00,24.0,22.0,-100.00,NNW,332,13.0,18.0,93,-99.99,,,-99.99,243.000000,,2013-02-09 22:51:00,
2013-02-09 15:01:00,24.0,23.0,-100.00,NNW,342,13.0,16.0,94,-99.99,,,-99.99,324.000000,,2013-02-09 23:01:00,
2013-02-09 15:11:00,24.0,23.0,-100.00,NNW,344,11.0,15.0,94,-99.99,,,-99.99,231.000000,,2013-02-09 23:11:00,
2013-02-09 15:21:00,24.0,22.0,-100.00,NNW,342,11.0,14.0,93,-99.99,,,-99.99,182.000000,,2013-02-09 23:21:00,
2013-02-09 15:31:00,24.0,22.0,-100.00,NNW,342,11.0,14.0,93,-99.99,,,-99.99,182.000000,,2013-02-09 23:31:00,
2013-02-09 15:42:00,24.0,22.0,-100.00,NNW,340,10.0,13.0,90,-99.99,,,-99.99,171.000000,,2013-02-09 23:42:00,
2013-02-09 15:52:00,24.0,21.0,-100.00,NNW,331,11.0,15.0,90,-99.99,,,-99.99,126.000000,,2013-02-09 23:52:00,
2013-02-09 16:02:00,23.0,21.0,-100.00,NNW,329,11.0,14.0,90,-99.99,,,-99.99,144.000000,,2013-02-10 00:02:00,
2013-02-09 16:11:00,24.0,20.0,-100.00,NW,308,11.0,18.0,86,-99.99,,,-99.99,205.000000,,2013-02-10 00:11:00,
2013-02-09 16:21:00,24.0,20.0,-100.00,NW,315,13.0,18.0,83,-99.99,,,-99.99,302.000000,,2013-02-10 00:21:00,
2013-02-09 16:30:00,24.0,18.0,-100.00,WNW,295,6.0,13.0,78,-99.99,,,-99.99,144.000000,,2013-02-10 00:30:00,
2013-02-09 16:32:00,24.0,20.0,-100.00,NW,315,13.0,18.0,83,-99.99,,,-99.99,302.000000,,2013-02-10 00:32:00,
2013-02-09 16:41:00,24.0,19.0,-100.00,NW,322,11.0,15.0,83,-99.99,,,-99.99,284.000000,,2013-02-10 00:41:00,
2013-02-09 16:51:00,24.0,20.0,-100.00,NNW,347,7.0,10.0,84,-99.99,,,-99.99,276.000000,,2013-02-10 00:51:00,
2013-02-09 17:01:00,24.0,20.0,-100.00,NNW,347,7.0,10.0,84,-99.99,,,-99.99,276.000000,,2013-02-10 01:01:00,
2013-02-09 17:11:00,24.0,18.0,-100.00,WNW,295,6.0,13.0,78,-99.99,,,-99.99,144.000000,,2013-02-10 01:11:00,
2013-02-09 17:21:00,24.0,18.0,-100.00,WNW,295,6.0,13.0,78,-99.99,,,-99.99,144.000000,,2013-02-10 01:21:00,
2013-02-09 17:40:00,19.0,14.0,-100.00,West,271,9.0,12.0,79,-99.99,,,-99.99,0.000000,,2013-02-10 01:40:00,
2013-02-09 18:00:00,19.0,14.0,-100.00,WSW,257,11.0,14.0,80,-99.99,,,-99.99,0.000000,,2013-02-10 02:00:00,
2013-02-09 18:01:00,20.0,14.0,-100.00,WNW,288,5.0,7.0,78,-99.99,,,-99.99,8.000000,,2013-02-10 02:01:00,
2013-02-09 18:11:00,19.0,13.0,-100.00,West,262,6.0,9.0,79,-99.99,,,-99.99,7.000000,,2013-02-10 02:11:00,
2013-02-09 18:20:00,20.0,14.0,-100.00,WSW,248,8.0,12.0,78,-99.99,,,-99.99,0.000000,,2013-02-10 02:20:00,
2013-02-09 18:22:00,19.0,13.0,-100.00,West,268,6.0,9.0,79,-99.99,,,-99.99,1.000000,,2013-02-10 02:22:00,
2013-02-09 18:31:00,19.0,14.0,-100.00,West,271,9.0,12.0,79,-99.99,,,-99.99,0.000000,,2013-02-10 02:31:00,
2013-02-09 18:52:00,19.0,14.0,-100.00,WSW,257,11.0,14.0,80,-99.99,,,-99.99,0.000000,,2013-02-10 02:52:00,
2013-02-09 19:40:00,19.0,16.0,-100.00,NW,320,4.0,6.0,88,-99.99,,,-99.99,0.000000,,2013-02-10 03:40:00,
2013-02-09 21:11:00,19.0,14.0,-100.00,West,268,8.0,11.0,82,-99.99,,,-99.99,0.000000,,2013-02-10 05:11:00,
2013-02-09 21:22:00,18.0,13.0,-100.00,West,271,5.0,8.0,81,-99.99,,,-99.99,0.000000,,2013-02-10 05:22:00,
2013-02-09 21:31:00,18.0,13.0,-100.00,West,271,5.0,8.0,81,-99.99,,,-99.99,0.000000,,2013-02-10 05:31:00,
2013-02-09 21:41:00,18.0,13.0,-100.00,WNW,284,5.0,9.0,80,-99.99,,,-99.99,0.000000,,2013-02-10 05:41:00,
2013-02-09 21:52:00,18.0,13.0,-100.00,WNW,284,5.0,9.0,80,-99.99,,,-99.99,0.000000,,2013-02-10 05:52:00,
2013-02-09 22:01:00,18.0,13.0,-100.00,WNW,283,5.0,8.0,79,-99.99,,,-99.99,0.000000,,2013-02-10 06:01:00,
2013-02-09 22:11:00,18.0,13.0,-100.00,WNW,286,5.0,8.0,80,-99.99,,,-99.99,0.000000,,2013-02-10 06:11:00,
2013-02-09 22:21:00,17.0,12.0,-100.00,WNW,282,3.0,5.0,81,-99.99,,,-99.99,0.000000,,2013-02-10 06:21:00,
2013-02-09 22:32:00,17.0,12.0,-100.00,WNW,282,3.0,5.0,81,-99.99,,,-99.99,0.000000,,2013-02-10 06:32:00,
2013-02-09 22:40:00,18.0,12.0,-100.00,West,267,4.0,6.0,77,-99.99,,,-99.99,0.000000,,2013-02-10 06:40:00,
2013-02-09 22:42:00,16.0,11.0,-100.00,WNW,282,5.0,7.0,80,-99.99,,,-99.99,0.000000,,2013-02-10 06:42:00,
2013-02-09 22:51:00,16.0,11.0,-100.00,WNW,282,5.0,7.0,80,-99.99,,,-99.99,0.000000,,2013-02-10 06:51:00,
2013-02-09 23:01:00,18.0,12.0,-100.00,West,269,5.0,7.0,78,-99.99,,,-99.99,0.000000,,2013-02-10 07:01:00,
2013-02-09 23:11:00,18.0,12.0,-100.00,West,269,5.0,7.0,78,-99.99,,,-99.99,0.000000,,2013-02-10 07:11:00,
2013-02-09 23:21:00,18.0,12.0,-100.00,West,267,5.0,7.0,78,-99.99,,,-99.99,0.000000,,2013-02-10 07:21:00,
2013-02-09 23:31:00,18.0,12.0,-100.00,West,267,4.0,6.0,77,-99.99,,,-99.99,0.000000,,2013-02-10 07:31:00,
2013-02-09 23:51:00,16.0,12.0,-100.00,WSW,248,0.0,3.0,81,-99.99,,,-99.99,0.000000,,2013-02-10 07:51:00,